[[{"header":{"parameterUnit":"m.s-1","parameterCategory":1,"la1":30.2991,"la2":30.254,"lo1":-89.0895,"lo2":-89.0444,"dy":0.0017,"dx":0.0017,"nx":28,"ny":28,"refTime":"2025-02-06T09:00:00:Z","depth":0,"parameterNumber":2,"parameterNumberName":"U-component_of_WINDS"},"data":[0,0,0,0,0,0,0,0,0,0,0,0,0,0,0,0,0,0,0,0,0,0,0,0,0,0,0,0,0,0,0,0,0,0,0,0,0,0,0,0,0,0,0,0,0,0,0,0,0,0,0,0,0,0,0,0,0,0,-1.369,-1.369,0,-1.3679,-1.3678,-1.3678,-1.3651,-1.365,-1.365,-1.3649,-1.3638,-1.3639,-1.3639,0,0,0,0,0,0,0,0,0,0,0,0,0,-1.3688,-1.3688,-1.369,-1.369,-1.3689,-1.3679,-1.3678,-1.3678,-1.3651,-1.365,-1.365,-1.3649,-1.3638,-1.3639,-1.3639,0,0,0,0,0,0,0,0,0,0,0,0,0,-1.3684,-1.3688,-1.369,-1.3674,-1.3673,-1.3679,-1.3678,-1.3678,-1.3651,-1.365,-1.3649,-1.3649,-1.3638,-1.3639,-1.3639,-1.3659,0,0,-1.364,-1.364,0,0,0,0,0,0,0,0,-1.3684,-1.3684,-1.3677,-1.3676,-1.3674,-1.3665,-1.3674,-1.3672,-1.3651,-1.3659,-1.3649,-1.3648,-1.3648,-1.3648,-1.3647,-1.3658,-1.3658,-1.364,-1.364,-1.364,-1.3641,0,0,0,0,0,0,0,-1.3685,-1.3685,-1.3685,-1.3677,-1.3675,-1.3668,-1.3667,-1.3673,-1.3659,-1.3659,-1.3657,-1.3656,-1.3647,-1.3647,-1.3647,-1.3658,-1.364,-1.364,-1.3641,-1.3641,-1.3683,-1.3684,0,0,0,0,0,0,-1.3687,-1.3685,-1.3686,-1.3685,-1.3677,-1.3669,-1.3667,-1.3669,-1.3659,-1.3656,-1.3656,-1.3654,-1.3647,-1.3647,-1.3646,-1.3668,-1.364,-1.3641,-1.3641,-1.3683,-1.3684,-1.3685,0,0,0,0,0,0,-1.3687,-1.3687,-1.3686,-1.3684,-1.3684,-1.367,-1.3672,-1.3669,-1.3669,-1.3657,-1.3654,-1.3659,-1.3646,-1.3646,-1.3656,-1.3667,-1.3641,-1.3641,-1.3682,-1.3683,-1.3684,-1.3712,0,0,0,0,0,0,-1.3687,-1.3688,-1.3695,-1.3685,-1.3684,-1.3695,-1.3673,-1.367,-1.367,-1.3667,-1.3659,-1.3656,-1.3645,-1.3655,-1.3656,-1.3667,-1.3642,-1.368,-1.3682,-1.3684,-1.371,-1.3714,-1.3718,0,0,0,0,0,-1.3687,-1.3703,-1.3695,-1.3695,-1.3693,-1.3696,-1.3696,-1.3682,-1.3671,-1.3678,-1.367,-1.3657,-1.3666,-1.3656,-1.3657,-1.3669,-1.368,-1.3682,-1.3684,-1.3708,-1.3713,-1.3718,0,0,0,0,0,0,-1.3715,-1.3702,-1.3693,-1.3706,-1.3702,-1.3691,-1.37,-1.3688,-1.3688,-1.3686,-1.367,-1.3668,-1.368,-1.3676,-1.3665,-1.3687,-1.3671,-1.3673,-1.3689,-1.3694,-1.3698,-1.3698,-1.3642,0,0,0,0,0,-1.3723,-1.3726,-1.3715,-1.3728,-1.3726,-1.3714,-1.3715,-1.3705,-1.3701,-1.3699,-1.3692,-1.3688,-1.3691,-1.3692,-1.3694,-1.371,-1.3707,-1.3718,-1.3722,-1.3725,-1.3727,-1.3734,-1.3739,-1.3691,-1.3691,-1.3691,0,0,-1.3738,-1.3732,-1.3735,-1.3733,-1.3729,-1.3733,-1.3712,-1.3718,-1.3721,-1.37,-1.3708,-1.3703,-1.3698,-1.3711,-1.3716,-1.3708,-1.374,-1.3728,-1.3731,-1.373,-1.3737,-1.3741,-1.3745,-1.3693,-1.3692,-1.3692,0,0,-1.3769,-1.3765,-1.3774,-1.3771,-1.3765,-1.3757,-1.3759,-1.375,-1.3746,-1.3754,-1.3738,-1.3742,-1.3746,-1.3743,-1.3742,-1.3772,-1.376,-1.3774,-1.3793,-1.3801,-1.3804,-1.3807,-1.3817,-1.3821,-1.3776,-1.3776,-1.3776,0,-1.3789,-1.3795,-1.3781,-1.3787,-1.3787,-1.3768,-1.3778,-1.3775,-1.3771,-1.3771,-1.3761,-1.3766,-1.3762,-1.3773,-1.378,-1.3781,-1.3782,-1.3774,-1.3805,-1.3808,-1.3811,-1.382,-1.3824,-1.3777,-1.3777,-1.3777,-1.3777,0,-1.3819,-1.3824,-1.3832,-1.3828,-1.3828,-1.3836,-1.3824,-1.3826,-1.3817,-1.381,-1.3818,-1.3812,-1.3812,-1.3814,-1.3805,-1.3824,-1.3819,-1.3808,-1.3791,-1.3817,-1.3825,-1.3829,-1.378,-1.3779,-1.3779,-1.3778,0,0,-1.3866,-1.3854,-1.3857,-1.3855,-1.3847,-1.385,-1.3858,-1.3857,-1.3859,-1.3857,-1.3862,-1.3867,-1.3856,-1.3855,-1.3846,-1.3852,-1.3875,-1.384,-1.384,-1.3846,-1.3895,-1.3902,-1.3907,-1.3868,-1.3868,-1.3869,-1.3895,0,-1.3894,-1.3905,-1.3893,-1.3907,-1.391,-1.3893,-1.3899,-1.3896,-1.3889,-1.3891,-1.3884,-1.3887,-1.3874,-1.3873,-1.3879,-1.3871,-1.3885,-1.387,-1.3872,-1.3872,-1.3872,-1.3911,-1.3919,-1.3944,-1.3898,-1.3899,-1.3899,0,-1.3927,-1.3926,-1.394,-1.3931,-1.3932,-1.3938,-1.3936,-1.3939,-1.3934,-1.3929,-1.3928,-1.3917,-1.3924,-1.3909,-1.3917,-1.3907,-1.3908,-1.3904,-1.3905,-1.3903,-1.3886,-1.3909,-1.3951,-1.3955,-1.3904,-1.3904,-1.3903,0,-1.3958,-1.396,-1.3968,-1.3967,-1.3958,-1.3962,-1.3958,-1.3953,-1.3954,-1.3952,-1.3952,-1.3952,-1.3952,-1.3952,-1.3941,-1.3931,-1.3951,-1.3935,-1.3946,-1.3947,-1.395,-1.395,-1.3992,-1.3953,-1.3953,-1.3953,-1.3953,0,-1.3989,-1.3998,-1.3982,-1.3987,-1.3996,-1.3983,-1.3993,-1.3988,-1.3983,-1.3987,-1.3973,-1.3977,-1.3963,-1.3965,-1.3957,-1.3965,-1.3965,-1.3961,-1.3958,-1.3961,-1.3962,-1.396,-1.3958,-1.3954,-1.3954,-1.3954,-1.3953,0,-1.4024,-1.4014,-1.4022,-1.4012,-1.401,-1.4018,-1.401,-1.4014,-1.4007,-1.4012,-1.4012,-1.4001,-1.4004,-1.3993,-1.3994,-1.3988,-1.4,-1.3995,-1.4001,-1.3999,-1.401,-1.4009,-1.4051,-1.4056,-1.4016,-1.4016,-1.4017,0,-1.4044,-1.405,-1.4042,-1.4043,-1.404,-1.4043,-1.4043,-1.403,-1.4031,-1.4027,-1.4032,-1.4033,-1.4032,-1.4037,-1.4029,-1.4029,-1.4023,-1.4038,-1.4023,-1.4026,-1.4022,-1.4021,-1.4021,-1.4041,-1.4041,-1.4042,-1.4042,0,-1.408,-1.4074,-1.4075,-1.4074,-1.4075,-1.4073,-1.4071,-1.4073,-1.406,-1.4061,-1.4063,-1.4063,-1.4064,-1.4064,-1.4063,-1.4059,-1.4048,-1.4047,-1.4049,-1.4052,-1.4054,-1.4052,-1.4008,-1.4046,-1.4045,-1.4045,-1.4045,-1.4045,-1.4107,-1.4111,-1.4106,-1.4107,-1.4104,-1.4102,-1.4106,-1.4099,-1.41,-1.4099,-1.4092,-1.4095,-1.4091,-1.4088,-1.4086,-1.4088,-1.4081,-1.4084,-1.4085,-1.4086,-1.4087,-1.4055,-1.4088,-1.4088,-1.4087,-1.4087,-1.4087,0,-1.4141,-1.4136,-1.4138,-1.4135,-1.4136,-1.4126,-1.4123,-1.4124,-1.4127,-1.4124,-1.4124,-1.4126,-1.4127,-1.4119,-1.4119,-1.4122,-1.4117,-1.4123,-1.4121,-1.4121,-1.4094,-1.4092,-1.4127,-1.4127,-1.4127,-1.4127,-1.4127,-1.4127,-1.4158,-1.4165,-1.4159,-1.4165,-1.4161,-1.4163,-1.4162,-1.4161,-1.4158,-1.416,-1.4161,-1.4156,-1.4151,-1.4151,-1.4151,-1.4149,-1.4149,-1.4156,-1.4151,-1.4127,-1.4123,-1.4119,-1.4116,-1.4156,-1.4156,-1.4177,-1.4178,-1.4178]},{"header":{"parameterUnit":"m.s-1","parameterCategory":1,"la1":30.2991,"la2":30.254,"lo1":-89.0895,"lo2":-89.0444,"dy":0.0017,"dx":0.0017,"nx":28,"ny":28,"refTime":"2025-02-06T09:00:00:Z","depth":0,"parameterNumber":3,"parameterNumberName":"V-component_of_WINDS"},"data":[0,0,0,0,0,0,0,0,0,0,0,0,0,0,0,0,0,0,0,0,0,0,0,0,0,0,0,0,0,0,0,0,0,0,0,0,0,0,0,0,0,0,0,0,0,0,0,0,0,0,0,0,0,0,0,0,0,0,2.3981,2.3982,0,2.4083,2.4084,2.4085,2.4122,2.4121,2.4121,2.4121,2.4222,2.4225,2.4228,0,0,0,0,0,0,0,0,0,0,0,0,0,2.3816,2.3819,2.3981,2.3982,2.3984,2.4083,2.4084,2.4086,2.4122,2.4121,2.4121,2.412,2.4221,2.4225,2.4228,0,0,0,0,0,0,0,0,0,0,0,0,0,2.39,2.382,2.3981,2.4014,2.4018,2.4083,2.4084,2.4086,2.4122,2.4121,2.4121,2.412,2.422,2.4224,2.4229,2.4268,0,0,2.4243,2.4245,0,0,0,0,0,0,0,0,2.3895,2.3906,2.4008,2.4012,2.4016,2.4089,2.4063,2.4147,2.4122,2.4082,2.4121,2.412,2.4178,2.4186,2.4206,2.4273,2.4277,2.4243,2.4246,2.4248,2.4249,0,0,0,0,0,0,0,2.3889,2.3901,2.4021,2.4009,2.4014,2.4023,2.4034,2.4079,2.4132,2.4086,2.4088,2.41,2.418,2.4202,2.4209,2.4278,2.4243,2.4247,2.425,2.4252,2.4383,2.4384,0,0,0,0,0,0,2.3878,2.3896,2.4018,2.4024,2.3953,2.4026,2.4039,2.4066,2.4131,2.4141,2.4101,2.4102,2.4194,2.4204,2.4213,2.4264,2.4248,2.4252,2.4255,2.4383,2.4384,2.4384,0,0,0,0,0,0,2.3874,2.3888,2.4014,2.3961,2.3978,2.403,2.406,2.4069,2.409,2.4143,2.4152,2.4113,2.4194,2.4206,2.4254,2.4268,2.4254,2.4258,2.4382,2.4383,2.4384,2.4367,0,0,0,0,0,0,2.3869,2.3887,2.3903,2.3961,2.3981,2.4055,2.4061,2.4071,2.4098,2.41,2.4157,2.4166,2.4195,2.4247,2.4259,2.4274,2.4262,2.4381,2.4382,2.4384,2.4366,2.4367,2.4368,0,0,0,0,0,2.3863,2.3893,2.3903,2.3918,2.4002,2.4055,2.4066,2.41,2.4099,2.4115,2.4149,2.4164,2.4264,2.4252,2.4265,2.4282,2.438,2.4382,2.4384,2.4366,2.4367,2.4368,0,0,0,0,0,0,2.3833,2.3901,2.3913,2.3963,2.4003,2.4061,2.4083,2.41,2.414,2.414,2.4179,2.4192,2.4237,2.4264,2.4249,2.4324,2.4323,2.4328,2.4305,2.4306,2.4307,2.43,2.4266,0,0,0,0,0,2.3832,2.3871,2.3928,2.3966,2.3986,2.4031,2.4055,2.4078,2.4121,2.4138,2.4175,2.4216,2.4257,2.4283,2.4323,2.437,2.4383,2.4388,2.4388,2.4389,2.4393,2.4421,2.4424,2.439,2.439,2.439,0,0,2.383,2.3872,2.3894,2.3961,2.3995,2.4034,2.4045,2.4085,2.4115,2.4144,2.4193,2.4221,2.4269,2.4317,2.434,2.4341,2.4405,2.4391,2.4391,2.4395,2.4423,2.4426,2.4429,2.4391,2.4391,2.4391,0,0,2.3848,2.3883,2.392,2.3954,2.4006,2.4036,2.4045,2.4101,2.4122,2.4171,2.4194,2.4229,2.4298,2.4332,2.4358,2.4389,2.4405,2.4401,2.4406,2.4433,2.4435,2.4438,2.4451,2.4455,2.4405,2.4405,2.4404,0,2.384,2.3901,2.3936,2.3977,2.4005,2.4035,2.4072,2.4103,2.4165,2.4184,2.4184,2.4273,2.4307,2.4364,2.4372,2.4391,2.4403,2.4396,2.4432,2.4435,2.4438,2.4451,2.4455,2.4404,2.4404,2.4404,2.4404,0,2.3888,2.393,2.3953,2.4014,2.4045,2.4083,2.4125,2.4152,2.4172,2.4201,2.4252,2.4294,2.4344,2.4359,2.4378,2.4419,2.4418,2.4425,2.4425,2.444,2.4453,2.4458,2.4403,2.4403,2.4403,2.4404,0,0,2.389,2.3971,2.3979,2.4008,2.4067,2.41,2.4139,2.419,2.4213,2.4255,2.429,2.4348,2.4355,2.4384,2.4407,2.4431,2.4455,2.4435,2.4436,2.4438,2.4505,2.4501,2.4506,2.4465,2.4466,2.4467,2.4501,0,2.3916,2.399,2.4024,2.4083,2.4122,2.4151,2.4186,2.4226,2.4255,2.4292,2.4323,2.4365,2.437,2.4388,2.4413,2.4447,2.4469,2.4445,2.4498,2.45,2.4487,2.4512,2.4508,2.4539,2.4506,2.4507,2.4508,0,2.3958,2.4001,2.4064,2.4121,2.4139,2.4169,2.4219,2.4254,2.43,2.432,2.4354,2.4376,2.4419,2.4415,2.4475,2.4457,2.4481,2.4501,2.4503,2.4511,2.4506,2.4522,2.4549,2.4554,2.4516,2.4515,2.4514,0,2.3955,2.4029,2.4077,2.41,2.4166,2.4188,2.4216,2.4262,2.4291,2.4334,2.4353,2.4399,2.4425,2.446,2.4495,2.4488,2.4552,2.455,2.4569,2.4569,2.4583,2.4581,2.4615,2.4595,2.4595,2.4595,2.4595,0,2.3982,2.402,2.4076,2.4106,2.4149,2.4187,2.4229,2.4259,2.43,2.4336,2.4362,2.4395,2.4438,2.4476,2.4502,2.4549,2.456,2.4577,2.4584,2.4576,2.4574,2.4593,2.4592,2.4596,2.4596,2.4595,2.4595,0,2.3986,2.4026,2.408,2.4139,2.4155,2.4184,2.4235,2.4265,2.4295,2.434,2.4353,2.44,2.4447,2.4484,2.4544,2.4562,2.4611,2.4618,2.4596,2.46,2.4618,2.4616,2.4667,2.4676,2.4647,2.4647,2.4648,0,2.4002,2.4032,2.4095,2.4122,2.415,2.4192,2.4222,2.4261,2.4291,2.4346,2.437,2.4418,2.4459,2.4532,2.4571,2.4618,2.4627,2.4641,2.4634,2.4626,2.463,2.4628,2.4632,2.4643,2.4643,2.4643,2.4643,0,2.4026,2.4044,2.4087,2.4137,2.4172,2.4213,2.4254,2.4274,2.432,2.4352,2.4401,2.4433,2.4496,2.4544,2.4595,2.4623,2.4641,2.4645,2.4652,2.4645,2.4632,2.4641,2.46,2.4644,2.4644,2.4644,2.4644,2.4643,2.4037,2.4066,2.4116,2.4163,2.4198,2.4237,2.4268,2.4303,2.4345,2.44,2.442,2.447,2.4516,2.4587,2.4616,2.4655,2.4657,2.4667,2.467,2.4672,2.4672,2.4624,2.4664,2.4664,2.4664,2.4664,2.4664,0,2.4064,2.4098,2.4141,2.4199,2.4236,2.425,2.4297,2.4327,2.4372,2.4414,2.4454,2.4511,2.4558,2.4601,2.4651,2.4674,2.4684,2.4686,2.4685,2.4692,2.4667,2.4657,2.4678,2.4678,2.4678,2.4678,2.4678,2.4678,2.4083,2.4133,2.4158,2.4226,2.4259,2.431,2.4336,2.4371,2.4405,2.4468,2.4508,2.4536,2.4579,2.4632,2.4676,2.4688,2.4705,2.4706,2.4719,2.4695,2.4694,2.4692,2.4683,2.4709,2.4709,2.4742,2.4742,2.4742]}]]